クリステンセン彗星

P/2007 B1 ( Christensen )

English version
Home page
Total 6,336 html files since Dec. 4, 1995
Updated on April 21, 2007

---------------------------------------------------------------------

・ プロフィール

発見日 2007年1月17日
発見光度 18.6等
発見者 E. J. Christensen (Catalina Sky Survey)

・ 軌道要素

Epoch 2007 Jan. 20.0 TT = JDT 2454120.5
T 2007 Jan. 19.95701 TT                                 MPC
q   2.4427718            (2000.0)            P               Q
n   0.07001702     Peri.   46.90576     -0.55257823     -0.80671157
a   5.8299784      Node    77.78597     +0.68883348     -0.58351779
e   0.5809981      Incl.   12.37515     +0.46921822     -0.09339932
P  14.08

・ 光度変化

        m1 = 13.7 + 5 logΔ + 10.0 log r

---------------------------------------------------------------------

軌道要素はM.P.E.C. 2007-F85に掲載されたものです。
光度グラフはComet for Windowsで作成したものです。

---------------------------------------------------------------------

Copyright(C) 1995-2008 Seiichi Yoshida (comet@aerith.net). All rights reserved.